owner,sensor,date,latitude,longitude,vertical_datum,sea_water_practical_salinity,qcFlag 
DISL,ioos:station:DISL:CATA:1,2016-08-01T00:00:00Z,30.3085,-88.1395,2.006,18.8,1111122 
DISL,ioos:station:DISL:CATA:1,2016-08-01T00:30:00Z,30.3085,-88.1395,2.013,17.48,1111122 
DISL,ioos:station:DISL:CATA:1,2016-08-01T01:00:00Z,30.3085,-88.1395,2.039,18.49,1111122 
DISL,ioos:station:DISL:CATA:1,2016-08-01T01:30:00Z,30.3085,-88.1395,2.001,17.28,1111122 
DISL,ioos:station:DISL:CATA:1,2016-08-01T02:00:00Z,30.3085,-88.1395,1.99,16.56,1111122 
DISL,ioos:station:DISL:CATA:1,2016-08-01T02:30:00Z,30.3085,-88.1395,1.978,16.57,1111122 
DISL,ioos:station:DISL:CATA:1,2016-08-01T03:00:00Z,30.3085,-88.1395,1.972,16.26,1111122 
DISL,ioos:station:DISL:CATA:1,2016-08-01T03:30:00Z,30.3085,-88.1395,1.995,16.08,1111122 
DISL,ioos:station:DISL:CATA:1,2016-08-01T04:00:00Z,30.3085,-88.1395,2.053,15.7,1111122 
DISL,ioos:station:DISL:CATA:1,2016-08-01T04:30:00Z,30.3085,-88.1395,2.13,15.1,1111122 
DISL,ioos:station:DISL:CATA:1,2016-08-01T05:00:00Z,30.3085,-88.1395,2.141,15.7,1111122 
DISL,ioos:station:DISL:CATA:1,2016-08-01T05:30:00Z,30.3085,-88.1395,2.135,15.79,1111122 
DISL,ioos:station:DISL:CATA:1,2016-08-01T06:00:00Z,30.3085,-88.1395,2.162,15.57,1111122 
DISL,ioos:station:DISL:CATA:1,2016-08-01T06:30:00Z,30.3085,-88.1395,2.194,16.19,1111122 
DISL,ioos:station:DISL:CATA:1,2016-08-01T07:00:00Z,30.3085,-88.1395,2.212,16.99,1111122 
DISL,ioos:station:DISL:CATA:1,2016-08-01T07:30:00Z,30.3085,-88.1395,2.231,18.0,1111122 
DISL,ioos:station:DISL:CATA:1,2016-08-01T08:00:00Z,30.3085,-88.1395,2.254,18.62,1111122 
DISL,ioos:station:DISL:CATA:1,2016-08-01T08:30:00Z,30.3085,-88.1395,2.278,18.04,1111122 
DISL,ioos:station:DISL:CATA:1,2016-08-01T09:00:00Z,30.3085,-88.1395,2.307,19.66,1111122 
DISL,ioos:station:DISL:CATA:1,2016-08-01T09:30:00Z,30.3085,-88.1395,2.337,19.81,1111122 
DISL,ioos:station:DISL:CATA:1,2016-08-01T10:00:00Z,30.3085,-88.1395,2.367,18.6,1111122 
DISL,ioos:station:DISL:CATA:1,2016-08-01T10:30:00Z,30.3085,-88.1395,2.409,17.93,1111122 
DISL,ioos:station:DISL:CATA:1,2016-08-01T11:00:00Z,30.3085,-88.1395,2.441,18.16,1111122 
DISL,ioos:station:DISL:CATA:1,2016-08-01T11:30:00Z,30.3085,-88.1395,2.488,17.84,1111122 
DISL,ioos:station:DISL:CATA:1,2016-08-01T12:00:00Z,30.3085,-88.1395,2.507,18.47,1111122 
DISL,ioos:station:DISL:CATA:1,2016-08-01T12:30:00Z,30.3085,-88.1395,2.531,17.88,1111122 
DISL,ioos:station:DISL:CATA:1,2016-08-01T13:00:00Z,30.3085,-88.1395,2.551,19.04,1111122 
DISL,ioos:station:DISL:CATA:1,2016-08-01T13:30:00Z,30.3085,-88.1395,2.554,18.38,1111122 
DISL,ioos:station:DISL:CATA:1,2016-08-01T14:00:00Z,30.3085,-88.1395,2.555,18.83,1111122 
DISL,ioos:station:DISL:CATA:1,2016-08-01T14:30:00Z,30.3085,-88.1395,2.566,18.61,1111122 
DISL,ioos:station:DISL:CATA:1,2016-08-01T15:00:00Z,30.3085,-88.1395,2.559,18.13,1111122 
DISL,ioos:station:DISL:CATA:1,2016-08-01T15:30:00Z,30.3085,-88.1395,2.53,19.12,1111122 
DISL,ioos:station:DISL:CATA:1,2016-08-01T16:00:00Z,30.3085,-88.1395,2.52,18.08,1111122 
DISL,ioos:station:DISL:CATA:1,2016-08-01T16:30:00Z,30.3085,-88.1395,2.514,19.07,1111122 
DISL,ioos:station:DISL:CATA:1,2016-08-01T17:00:00Z,30.3085,-88.1395,2.505,19.32,1111122 
DISL,ioos:station:DISL:CATA:1,2016-08-01T17:30:00Z,30.3085,-88.1395,2.49,18.91,1111122 
DISL,ioos:station:DISL:CATA:1,2016-08-01T18:00:00Z,30.3085,-88.1395,2.471,18.82,1111122 
DISL,ioos:station:DISL:CATA:1,2016-08-01T18:30:00Z,30.3085,-88.1395,2.429,19.22,1111122 
DISL,ioos:station:DISL:CATA:1,2016-08-01T19:00:00Z,30.3085,-88.1395,2.387,17.26,1111122 
DISL,ioos:station:DISL:CATA:1,2016-08-01T19:30:00Z,30.3085,-88.1395,2.323,16.54,1111122 
DISL,ioos:station:DISL:CATA:1,2016-08-01T20:00:00Z,30.3085,-88.1395,2.274,15.75,1111122 
DISL,ioos:station:DISL:CATA:1,2016-08-01T20:30:00Z,30.3085,-88.1395,2.235,17.23,1111122 
DISL,ioos:station:DISL:CATA:1,2016-08-01T21:00:00Z,30.3085,-88.1395,2.183,15.69,1111122 
DISL,ioos:station:DISL:CATA:1,2016-08-01T21:30:00Z,30.3085,-88.1395,2.133,15.04,1111122 
DISL,ioos:station:DISL:CATA:1,2016-08-01T22:00:00Z,30.3085,-88.1395,2.1,14.91,1111122 
DISL,ioos:station:DISL:CATA:1,2016-08-01T22:30:00Z,30.3085,-88.1395,2.081,18.44,1111122 
DISL,ioos:station:DISL:CATA:1,2016-08-01T23:00:00Z,30.3085,-88.1395,2.059,17.67,1111122 
DISL,ioos:station:DISL:CATA:1,2016-08-01T23:30:00Z,30.3085,-88.1395,2.054,16.6,1111122 
DISL,ioos:station:DISL:CATA:1,2016-08-02T00:00:00Z,30.3085,-88.1395,2.057,15.9,1111122 
DISL,ioos:station:DISL:CATA:1,2016-08-02T00:30:00Z,30.3085,-88.1395,2.052,16.0,1111122 
DISL,ioos:station:DISL:CATA:1,2016-08-02T01:00:00Z,30.3085,-88.1395,2.063,16.09,1111122 
DISL,ioos:station:DISL:CATA:1,2016-08-02T01:30:00Z,30.3085,-88.1395,2.076,17.73,1111122 
DISL,ioos:station:DISL:CATA:1,2016-08-02T02:00:00Z,30.3085,-88.1395,2.09,17.09,1111122 
DISL,ioos:station:DISL:CATA:1,2016-08-02T02:30:00Z,30.3085,-88.1395,2.091,15.92,1111122 
DISL,ioos:station:DISL:CATA:1,2016-08-02T03:00:00Z,30.3085,-88.1395,2.086,16.38,1111122 
DISL,ioos:station:DISL:CATA:1,2016-08-02T03:30:00Z,30.3085,-88.1395,2.093,17.78,1111122 
DISL,ioos:station:DISL:CATA:1,2016-08-02T04:00:00Z,30.3085,-88.1395,2.102,16.94,1111122 
DISL,ioos:station:DISL:CATA:1,2016-08-02T04:30:00Z,30.3085,-88.1395,2.131,15.61,1111122 
DISL,ioos:station:DISL:CATA:1,2016-08-02T05:00:00Z,30.3085,-88.1395,2.152,16.03,1111122 
DISL,ioos:station:DISL:CATA:1,2016-08-02T05:30:00Z,30.3085,-88.1395,2.171,16.49,1111122 
DISL,ioos:station:DISL:CATA:1,2016-08-02T06:00:00Z,30.3085,-88.1395,2.196,15.73,1111122 
DISL,ioos:station:DISL:CATA:1,2016-08-02T06:30:00Z,30.3085,-88.1395,2.225,15.67,1111122 
DISL,ioos:station:DISL:CATA:1,2016-08-02T07:00:00Z,30.3085,-88.1395,2.242,15.6,1111122 
DISL,ioos:station:DISL:CATA:1,2016-08-02T07:30:00Z,30.3085,-88.1395,2.265,15.9,1111122 
DISL,ioos:station:DISL:CATA:1,2016-08-02T08:00:00Z,30.3085,-88.1395,2.31,15.65,1111122 
DISL,ioos:station:DISL:CATA:1,2016-08-02T08:30:00Z,30.3085,-88.1395,2.32,16.95,1111122 
DISL,ioos:station:DISL:CATA:1,2016-08-02T09:00:00Z,30.3085,-88.1395,2.348,16.25,1111122 
DISL,ioos:station:DISL:CATA:1,2016-08-02T09:30:00Z,30.3085,-88.1395,2.379,16.46,1111122 
DISL,ioos:station:DISL:CATA:1,2016-08-02T10:00:00Z,30.3085,-88.1395,2.411,16.06,1111122 
DISL,ioos:station:DISL:CATA:1,2016-08-02T10:30:00Z,30.3085,-88.1395,2.43,16.34,1111122 
DISL,ioos:station:DISL:CATA:1,2016-08-02T11:00:00Z,30.3085,-88.1395,2.454,17.32,1111122 
DISL,ioos:station:DISL:CATA:1,2016-08-02T11:30:00Z,30.3085,-88.1395,2.485,16.81,1111122 
DISL,ioos:station:DISL:CATA:1,2016-08-02T12:00:00Z,30.3085,-88.1395,2.526,17.52,1111122 
DISL,ioos:station:DISL:CATA:1,2016-08-02T12:30:00Z,30.3085,-88.1395,2.541,19.38,1111122 
DISL,ioos:station:DISL:CATA:1,2016-08-02T13:00:00Z,30.3085,-88.1395,2.551,18.38,1111122 
DISL,ioos:station:DISL:CATA:1,2016-08-02T13:30:00Z,30.3085,-88.1395,2.563,18.03,1111122 
DISL,ioos:station:DISL:CATA:1,2016-08-02T14:00:00Z,30.3085,-88.1395,2.599,17.41,1111122 
DISL,ioos:station:DISL:CATA:1,2016-08-02T14:30:00Z,30.3085,-88.1395,2.623,16.33,1111122 
DISL,ioos:station:DISL:CATA:1,2016-08-02T15:00:00Z,30.3085,-88.1395,2.631,16.46,1111122 
DISL,ioos:station:DISL:CATA:1,2016-08-02T15:30:00Z,30.3085,-88.1395,2.625,16.8,1111122 
DISL,ioos:station:DISL:CATA:1,2016-08-02T16:00:00Z,30.3085,-88.1395,2.615,16.95,1111122 
DISL,ioos:station:DISL:CATA:1,2016-08-02T16:30:00Z,30.3085,-88.1395,2.603,17.87,1111122 
DISL,ioos:station:DISL:CATA:1,2016-08-02T17:00:00Z,30.3085,-88.1395,2.583,18.51,1111122 
DISL,ioos:station:DISL:CATA:1,2016-08-02T17:30:00Z,30.3085,-88.1395,2.56,16.81,1111122 
DISL,ioos:station:DISL:CATA:1,2016-08-02T18:00:00Z,30.3085,-88.1395,2.557,17.21,1111122 
DISL,ioos:station:DISL:CATA:1,2016-08-02T18:30:00Z,30.3085,-88.1395,2.535,16.74,1111122 
DISL,ioos:station:DISL:CATA:1,2016-08-02T19:00:00Z,30.3085,-88.1395,2.501,16.65,1111122 
DISL,ioos:station:DISL:CATA:1,2016-08-02T19:30:00Z,30.3085,-88.1395,2.467,17.28,1111122 
DISL,ioos:station:DISL:CATA:1,2016-08-02T20:00:00Z,30.3085,-88.1395,2.427,17.07,1111122 
DISL,ioos:station:DISL:CATA:1,2016-08-02T20:30:00Z,30.3085,-88.1395,2.39,16.92,1111122 
DISL,ioos:station:DISL:CATA:1,2016-08-02T21:00:00Z,30.3085,-88.1395,2.343,16.56,1111122 
DISL,ioos:station:DISL:CATA:1,2016-08-02T21:30:00Z,30.3085,-88.1395,2.301,17.0,1111122 
DISL,ioos:station:DISL:CATA:1,2016-08-02T22:00:00Z,30.3085,-88.1395,2.259,17.36,1111122 
DISL,ioos:station:DISL:CATA:1,2016-08-02T22:30:00Z,30.3085,-88.1395,2.224,16.42,1111122 
DISL,ioos:station:DISL:CATA:1,2016-08-02T23:00:00Z,30.3085,-88.1395,2.185,16.73,1111122 
DISL,ioos:station:DISL:CATA:1,2016-08-02T23:30:00Z,30.3085,-88.1395,2.163,16.72,1111122 
DISL,ioos:station:DISL:CATA:1,2016-08-03T00:00:00Z,30.3085,-88.1395,2.14,17.03,1111122 
DISL,ioos:station:DISL:CATA:1,2016-08-03T00:30:00Z,30.3085,-88.1395,2.129,17.26,1111122 
DISL,ioos:station:DISL:CATA:1,2016-08-03T01:00:00Z,30.3085,-88.1395,2.128,17.1,1111122 
DISL,ioos:station:DISL:CATA:1,2016-08-03T01:30:00Z,30.3085,-88.1395,2.137,18.72,1111122 
DISL,ioos:station:DISL:CATA:1,2016-08-03T02:00:00Z,30.3085,-88.1395,2.154,16.87,1111122 
DISL,ioos:station:DISL:CATA:1,2016-08-03T02:30:00Z,30.3085,-88.1395,2.167,16.94,1111122 
DISL,ioos:station:DISL:CATA:1,2016-08-03T03:00:00Z,30.3085,-88.1395,2.171,17.06,1111122 
DISL,ioos:station:DISL:CATA:1,2016-08-03T03:30:00Z,30.3085,-88.1395,2.174,16.98,1111122 
DISL,ioos:station:DISL:CATA:1,2016-08-03T04:00:00Z,30.3085,-88.1395,2.172,17.22,1111122 
DISL,ioos:station:DISL:CATA:1,2016-08-03T04:30:00Z,30.3085,-88.1395,2.185,17.07,1111122 
DISL,ioos:station:DISL:CATA:1,2016-08-03T05:00:00Z,30.3085,-88.1395,2.202,17.31,1111122 
DISL,ioos:station:DISL:CATA:1,2016-08-03T05:30:00Z,30.3085,-88.1395,2.226,17.39,1111122 
DISL,ioos:station:DISL:CATA:1,2016-08-03T06:00:00Z,30.3085,-88.1395,2.233,16.98,1111122 
DISL,ioos:station:DISL:CATA:1,2016-08-03T06:30:00Z,30.3085,-88.1395,2.269,19.24,1111122 
DISL,ioos:station:DISL:CATA:1,2016-08-03T07:00:00Z,30.3085,-88.1395,2.285,19.35,1111122 
DISL,ioos:station:DISL:CATA:1,2016-08-03T07:30:00Z,30.3085,-88.1395,2.3,19.43,1111122 
DISL,ioos:station:DISL:CATA:1,2016-08-03T08:00:00Z,30.3085,-88.1395,2.315,19.64,1111122 
DISL,ioos:station:DISL:CATA:1,2016-08-03T08:30:00Z,30.3085,-88.1395,2.332,19.55,1111122 
DISL,ioos:station:DISL:CATA:1,2016-08-03T09:00:00Z,30.3085,-88.1395,2.361,17.85,1111122 
DISL,ioos:station:DISL:CATA:1,2016-08-03T09:30:00Z,30.3085,-88.1395,2.384,19.4,1111122 
DISL,ioos:station:DISL:CATA:1,2016-08-03T10:00:00Z,30.3085,-88.1395,2.399,19.07,1111122 
DISL,ioos:station:DISL:CATA:1,2016-08-03T10:30:00Z,30.3085,-88.1395,2.408,19.08,1111122 
DISL,ioos:station:DISL:CATA:1,2016-08-03T11:00:00Z,30.3085,-88.1395,2.439,19.39,1111122 
DISL,ioos:station:DISL:CATA:1,2016-08-03T11:30:00Z,30.3085,-88.1395,2.465,18.76,1111122 
DISL,ioos:station:DISL:CATA:1,2016-08-03T12:00:00Z,30.3085,-88.1395,2.483,19.69,1111122 
DISL,ioos:station:DISL:CATA:1,2016-08-03T12:30:00Z,30.3085,-88.1395,2.521,18.96,1111122 
DISL,ioos:station:DISL:CATA:1,2016-08-03T13:00:00Z,30.3085,-88.1395,2.547,18.55,1111122 
DISL,ioos:station:DISL:CATA:1,2016-08-03T13:30:00Z,30.3085,-88.1395,2.562,18.5,1111122 
DISL,ioos:station:DISL:CATA:1,2016-08-03T14:00:00Z,30.3085,-88.1395,2.583,19.86,1111122 
DISL,ioos:station:DISL:CATA:1,2016-08-03T14:30:00Z,30.3085,-88.1395,2.606,20.28,1111122 
DISL,ioos:station:DISL:CATA:1,2016-08-03T15:00:00Z,30.3085,-88.1395,2.635,20.36,1111122 
DISL,ioos:station:DISL:CATA:1,2016-08-03T15:30:00Z,30.3085,-88.1395,2.622,20.73,1111122 
DISL,ioos:station:DISL:CATA:1,2016-08-03T16:00:00Z,30.3085,-88.1395,2.618,20.32,1111122 
DISL,ioos:station:DISL:CATA:1,2016-08-03T16:30:00Z,30.3085,-88.1395,2.606,20.54,1111122 
DISL,ioos:station:DISL:CATA:1,2016-08-03T17:00:00Z,30.3085,-88.1395,2.6,20.82,1111122 
DISL,ioos:station:DISL:CATA:1,2016-08-03T17:30:00Z,30.3085,-88.1395,2.586,19.24,1111122 
DISL,ioos:station:DISL:CATA:1,2016-08-03T18:00:00Z,30.3085,-88.1395,2.578,18.55,1111122 
DISL,ioos:station:DISL:CATA:1,2016-08-03T18:30:00Z,30.3085,-88.1395,2.562,18.56,1111122 
DISL,ioos:station:DISL:CATA:1,2016-08-03T19:00:00Z,30.3085,-88.1395,2.54,18.7,1111122 
DISL,ioos:station:DISL:CATA:1,2016-08-03T19:30:00Z,30.3085,-88.1395,2.505,18.62,1111122 
DISL,ioos:station:DISL:CATA:1,2016-08-03T20:00:00Z,30.3085,-88.1395,2.488,18.39,1111122 
DISL,ioos:station:DISL:CATA:1,2016-08-03T20:30:00Z,30.3085,-88.1395,2.463,18.19,1111122 
DISL,ioos:station:DISL:CATA:1,2016-08-03T21:00:00Z,30.3085,-88.1395,2.369,18.59,1111122 
DISL,ioos:station:DISL:CATA:1,2016-08-03T21:30:00Z,30.3085,-88.1395,2.331,17.48,1111122 
DISL,ioos:station:DISL:CATA:1,2016-08-03T22:00:00Z,30.3085,-88.1395,2.264,17.29,1111122 
DISL,ioos:station:DISL:CATA:1,2016-08-03T22:30:00Z,30.3085,-88.1395,2.251,17.25,1111122 
DISL,ioos:station:DISL:CATA:1,2016-08-03T23:00:00Z,30.3085,-88.1395,2.245,19.43,1111122 
DISL,ioos:station:DISL:CATA:1,2016-08-03T23:30:00Z,30.3085,-88.1395,2.213,19.07,1111122 
DISL,ioos:station:DISL:CATA:1,2016-08-04T00:00:00Z,30.3085,-88.1395,2.181,18.15,1111122 
DISL,ioos:station:DISL:CATA:1,2016-08-04T00:30:00Z,30.3085,-88.1395,2.168,16.73,1111122 
DISL,ioos:station:DISL:CATA:1,2016-08-04T01:00:00Z,30.3085,-88.1395,2.18,17.82,1111122 
DISL,ioos:station:DISL:CATA:1,2016-08-04T01:30:00Z,30.3085,-88.1395,2.184,19.72,1111122 
DISL,ioos:station:DISL:CATA:1,2016-08-04T02:00:00Z,30.3085,-88.1395,2.18,20.07,1111122 
DISL,ioos:station:DISL:CATA:1,2016-08-04T02:30:00Z,30.3085,-88.1395,2.196,20.52,1111122 
DISL,ioos:station:DISL:CATA:1,2016-08-04T03:00:00Z,30.3085,-88.1395,2.193,19.32,1111122 
DISL,ioos:station:DISL:CATA:1,2016-08-04T03:30:00Z,30.3085,-88.1395,2.193,20.06,1111122 
DISL,ioos:station:DISL:CATA:1,2016-08-04T04:00:00Z,30.3085,-88.1395,2.193,18.52,1111122 
DISL,ioos:station:DISL:CATA:1,2016-08-04T04:30:00Z,30.3085,-88.1395,2.192,18.47,1111122 
DISL,ioos:station:DISL:CATA:1,2016-08-04T05:00:00Z,30.3085,-88.1395,2.198,18.83,1111122 
DISL,ioos:station:DISL:CATA:1,2016-08-04T05:30:00Z,30.3085,-88.1395,2.212,18.21,1111122 
DISL,ioos:station:DISL:CATA:1,2016-08-04T06:00:00Z,30.3085,-88.1395,2.225,19.47,1111122 
DISL,ioos:station:DISL:CATA:1,2016-08-04T06:30:00Z,30.3085,-88.1395,2.248,18.82,1111122 
DISL,ioos:station:DISL:CATA:1,2016-08-04T07:00:00Z,30.3085,-88.1395,2.277,17.4,1111122 
DISL,ioos:station:DISL:CATA:1,2016-08-04T07:30:00Z,30.3085,-88.1395,2.3,18.79,1111122 
DISL,ioos:station:DISL:CATA:1,2016-08-04T08:00:00Z,30.3085,-88.1395,2.325,16.77,1111122 
DISL,ioos:station:DISL:CATA:1,2016-08-04T08:30:00Z,30.3085,-88.1395,2.328,19.11,1111122 
DISL,ioos:station:DISL:CATA:1,2016-08-04T09:00:00Z,30.3085,-88.1395,2.342,19.21,1111122 
DISL,ioos:station:DISL:CATA:1,2016-08-04T09:30:00Z,30.3085,-88.1395,2.355,19.51,1111122 
DISL,ioos:station:DISL:CATA:1,2016-08-04T10:00:00Z,30.3085,-88.1395,2.367,19.57,1111122 
DISL,ioos:station:DISL:CATA:1,2016-08-04T10:30:00Z,30.3085,-88.1395,2.384,20.08,1111122 
DISL,ioos:station:DISL:CATA:1,2016-08-04T11:00:00Z,30.3085,-88.1395,2.379,20.31,1111122 
DISL,ioos:station:DISL:CATA:1,2016-08-04T11:30:00Z,30.3085,-88.1395,2.396,20.06,1111122 
DISL,ioos:station:DISL:CATA:1,2016-08-04T12:00:00Z,30.3085,-88.1395,2.396,20.79,1111122 
DISL,ioos:station:DISL:CATA:1,2016-08-04T12:30:00Z,30.3085,-88.1395,2.416,19.82,1111122 
DISL,ioos:station:DISL:CATA:1,2016-08-04T13:00:00Z,30.3085,-88.1395,2.446,20.62,1111122 
DISL,ioos:station:DISL:CATA:1,2016-08-04T13:30:00Z,30.3085,-88.1395,2.477,21.09,1111122 
DISL,ioos:station:DISL:CATA:1,2016-08-04T14:00:00Z,30.3085,-88.1395,2.503,21.59,1111122 
DISL,ioos:station:DISL:CATA:1,2016-08-04T14:30:00Z,30.3085,-88.1395,2.532,21.85,1111122 
DISL,ioos:station:DISL:CATA:1,2016-08-04T15:00:00Z,30.3085,-88.1395,2.541,22.01,1111122 
DISL,ioos:station:DISL:CATA:1,2016-08-04T15:30:00Z,30.3085,-88.1395,2.63,22.14,1111122 
DISL,ioos:station:DISL:CATA:1,2016-08-04T16:00:00Z,30.3085,-88.1395,2.596,22.14,1111122 
DISL,ioos:station:DISL:CATA:1,2016-08-04T16:30:00Z,30.3085,-88.1395,2.541,22.14,1111122 
DISL,ioos:station:DISL:CATA:1,2016-08-04T17:00:00Z,30.3085,-88.1395,2.507,22.14,1111122 
DISL,ioos:station:DISL:CATA:1,2016-08-04T17:30:00Z,30.3085,-88.1395,2.56,22.1,1111122 
DISL,ioos:station:DISL:CATA:1,2016-08-04T18:00:00Z,30.3085,-88.1395,2.553,21.34,1111122 
DISL,ioos:station:DISL:CATA:1,2016-08-04T18:30:00Z,30.3085,-88.1395,2.525,21.51,1111122 
DISL,ioos:station:DISL:CATA:1,2016-08-04T19:00:00Z,30.3085,-88.1395,2.509,19.57,1111122 
DISL,ioos:station:DISL:CATA:1,2016-08-04T19:30:00Z,30.3085,-88.1395,2.498,20.01,1111122 
DISL,ioos:station:DISL:CATA:1,2016-08-04T20:00:00Z,30.3085,-88.1395,2.487,20.07,1111122 
DISL,ioos:station:DISL:CATA:1,2016-08-04T20:30:00Z,30.3085,-88.1395,2.502,20.87,1111122 
DISL,ioos:station:DISL:CATA:1,2016-08-04T21:00:00Z,30.3085,-88.1395,2.489,20.6,1111122 
DISL,ioos:station:DISL:CATA:1,2016-08-04T21:30:00Z,30.3085,-88.1395,2.431,20.73,1111122 
DISL,ioos:station:DISL:CATA:1,2016-08-04T22:00:00Z,30.3085,-88.1395,2.413,20.68,1111122 
DISL,ioos:station:DISL:CATA:1,2016-08-04T22:30:00Z,30.3085,-88.1395,2.361,20.51,1111122 
DISL,ioos:station:DISL:CATA:1,2016-08-04T23:00:00Z,30.3085,-88.1395,2.323,20.39,1111122 
DISL,ioos:station:DISL:CATA:1,2016-08-04T23:30:00Z,30.3085,-88.1395,2.313,20.16,1111122 
DISL,ioos:station:DISL:CATA:1,2016-08-05T00:00:00Z,30.3085,-88.1395,2.273,18.03,1111122 
DISL,ioos:station:DISL:CATA:1,2016-08-05T00:30:00Z,30.3085,-88.1395,2.256,20.19,1111122 
DISL,ioos:station:DISL:CATA:1,2016-08-05T01:00:00Z,30.3085,-88.1395,2.259,19.85,1111122 
DISL,ioos:station:DISL:CATA:1,2016-08-05T01:30:00Z,30.3085,-88.1395,2.245,19.81,1111122 
DISL,ioos:station:DISL:CATA:1,2016-08-05T02:00:00Z,30.3085,-88.1395,2.25,19.73,1111122 
DISL,ioos:station:DISL:CATA:1,2016-08-05T02:30:00Z,30.3085,-88.1395,2.255,19.66,1111122 
DISL,ioos:station:DISL:CATA:1,2016-08-05T03:00:00Z,30.3085,-88.1395,2.249,19.56,1111122 
DISL,ioos:station:DISL:CATA:1,2016-08-05T03:30:00Z,30.3085,-88.1395,2.264,19.31,1111122 
DISL,ioos:station:DISL:CATA:1,2016-08-05T04:00:00Z,30.3085,-88.1395,2.288,18.26,1111122 
DISL,ioos:station:DISL:CATA:1,2016-08-05T04:30:00Z,30.3085,-88.1395,2.299,18.64,1111122 
DISL,ioos:station:DISL:CATA:1,2016-08-05T05:00:00Z,30.3085,-88.1395,2.297,18.32,1111122 
DISL,ioos:station:DISL:CATA:1,2016-08-05T05:30:00Z,30.3085,-88.1395,2.293,18.97,1111122 
DISL,ioos:station:DISL:CATA:1,2016-08-05T06:00:00Z,30.3085,-88.1395,2.297,18.33,1111122 
DISL,ioos:station:DISL:CATA:1,2016-08-05T06:30:00Z,30.3085,-88.1395,2.294,19.07,1111122 
DISL,ioos:station:DISL:CATA:1,2016-08-05T07:00:00Z,30.3085,-88.1395,2.315,18.95,1111122 
DISL,ioos:station:DISL:CATA:1,2016-08-05T07:30:00Z,30.3085,-88.1395,2.34,18.44,1111122 
DISL,ioos:station:DISL:CATA:1,2016-08-05T08:00:00Z,30.3085,-88.1395,2.354,18.77,1111122 
DISL,ioos:station:DISL:CATA:1,2016-08-05T08:30:00Z,30.3085,-88.1395,2.371,18.12,1111122 
DISL,ioos:station:DISL:CATA:1,2016-08-05T09:00:00Z,30.3085,-88.1395,2.385,19.56,1111122 
DISL,ioos:station:DISL:CATA:1,2016-08-05T09:30:00Z,30.3085,-88.1395,2.392,18.49,1111122 
DISL,ioos:station:DISL:CATA:1,2016-08-05T10:00:00Z,30.3085,-88.1395,2.4,17.61,1111122 
DISL,ioos:station:DISL:CATA:1,2016-08-05T10:30:00Z,30.3085,-88.1395,2.393,19.31,1111122 
DISL,ioos:station:DISL:CATA:1,2016-08-05T11:00:00Z,30.3085,-88.1395,2.39,19.02,1111122 
DISL,ioos:station:DISL:CATA:1,2016-08-05T11:30:00Z,30.3085,-88.1395,2.386,18.05,1111122 
DISL,ioos:station:DISL:CATA:1,2016-08-05T12:00:00Z,30.3085,-88.1395,2.381,19.31,1111122 
DISL,ioos:station:DISL:CATA:1,2016-08-05T12:30:00Z,30.3085,-88.1395,2.384,19.38,1111122 
DISL,ioos:station:DISL:CATA:1,2016-08-05T13:00:00Z,30.3085,-88.1395,2.408,18.26,1111122 
DISL,ioos:station:DISL:CATA:1,2016-08-05T13:30:00Z,30.3085,-88.1395,2.433,18.09,1111122 
DISL,ioos:station:DISL:CATA:1,2016-08-05T14:00:00Z,30.3085,-88.1395,2.464,18.98,1111122 
DISL,ioos:station:DISL:CATA:1,2016-08-05T14:30:00Z,30.3085,-88.1395,2.492,17.98,1111122 
DISL,ioos:station:DISL:CATA:1,2016-08-05T15:00:00Z,30.3085,-88.1395,2.487,18.29,1111122 
DISL,ioos:station:DISL:CATA:1,2016-08-05T15:30:00Z,30.3085,-88.1395,2.488,18.33,1111122 
DISL,ioos:station:DISL:CATA:1,2016-08-05T16:00:00Z,30.3085,-88.1395,2.502,18.93,1111122 
DISL,ioos:station:DISL:CATA:1,2016-08-05T16:30:00Z,30.3085,-88.1395,2.515,19.31,1111122 
DISL,ioos:station:DISL:CATA:1,2016-08-05T17:00:00Z,30.3085,-88.1395,2.509,19.26,1111122 
DISL,ioos:station:DISL:CATA:1,2016-08-05T17:30:00Z,30.3085,-88.1395,2.502,19.81,1111122 
DISL,ioos:station:DISL:CATA:1,2016-08-05T18:00:00Z,30.3085,-88.1395,2.502,19.29,1111122 
DISL,ioos:station:DISL:CATA:1,2016-08-05T18:30:00Z,30.3085,-88.1395,2.507,19.29,1111122 
DISL,ioos:station:DISL:CATA:1,2016-08-05T19:00:00Z,30.3085,-88.1395,2.504,19.71,1111122 
DISL,ioos:station:DISL:CATA:1,2016-08-05T19:30:00Z,30.3085,-88.1395,2.5,20.29,1111122 
DISL,ioos:station:DISL:CATA:1,2016-08-05T20:00:00Z,30.3085,-88.1395,2.482,20.49,1111122 
DISL,ioos:station:DISL:CATA:1,2016-08-05T20:30:00Z,30.3085,-88.1395,2.459,20.6,1111122 
DISL,ioos:station:DISL:CATA:1,2016-08-05T21:00:00Z,30.3085,-88.1395,2.436,19.9,1111122 
DISL,ioos:station:DISL:CATA:1,2016-08-05T21:30:00Z,30.3085,-88.1395,2.412,20.1,1111122 
DISL,ioos:station:DISL:CATA:1,2016-08-05T22:00:00Z,30.3085,-88.1395,2.398,20.56,1111122 
DISL,ioos:station:DISL:CATA:1,2016-08-05T22:30:00Z,30.3085,-88.1395,2.38,19.25,1111122 
DISL,ioos:station:DISL:CATA:1,2016-08-05T23:00:00Z,30.3085,-88.1395,2.342,21.34,1111122 
DISL,ioos:station:DISL:CATA:1,2016-08-05T23:30:00Z,30.3085,-88.1395,2.331,20.45,1111122 
DISL,ioos:station:DISL:CATA:1,2016-08-06T00:00:00Z,30.3085,-88.1395,2.311,20.55,1111122 
DISL,ioos:station:DISL:CATA:1,2016-08-06T00:30:00Z,30.3085,-88.1395,2.298,19.94,1111122 
DISL,ioos:station:DISL:CATA:1,2016-08-06T01:00:00Z,30.3085,-88.1395,2.277,20.03,1111122 
DISL,ioos:station:DISL:CATA:1,2016-08-06T01:30:00Z,30.3085,-88.1395,2.273,20.17,1111122 
DISL,ioos:station:DISL:CATA:1,2016-08-06T02:00:00Z,30.3085,-88.1395,2.267,19.96,1111122 
DISL,ioos:station:DISL:CATA:1,2016-08-06T02:30:00Z,30.3085,-88.1395,2.265,19.67,1111122 
DISL,ioos:station:DISL:CATA:1,2016-08-06T03:00:00Z,30.3085,-88.1395,2.265,20.27,1111122 
DISL,ioos:station:DISL:CATA:1,2016-08-06T03:30:00Z,30.3085,-88.1395,2.27,19.64,1111122 
DISL,ioos:station:DISL:CATA:1,2016-08-06T04:00:00Z,30.3085,-88.1395,2.307,20.62,1111122 
DISL,ioos:station:DISL:CATA:1,2016-08-06T04:30:00Z,30.3085,-88.1395,2.317,19.87,1111122 
DISL,ioos:station:DISL:CATA:1,2016-08-06T05:00:00Z,30.3085,-88.1395,2.199,20.85,1111122 
DISL,ioos:station:DISL:CATA:1,2016-08-06T05:30:00Z,30.3085,-88.1395,2.189,20.32,1111122 
DISL,ioos:station:DISL:CATA:1,2016-08-06T06:00:00Z,30.3085,-88.1395,2.261,19.49,1111122 
DISL,ioos:station:DISL:CATA:1,2016-08-06T06:30:00Z,30.3085,-88.1395,2.265,19.49,1111122 
DISL,ioos:station:DISL:CATA:1,2016-08-06T07:00:00Z,30.3085,-88.1395,2.251,19.29,1111122 
DISL,ioos:station:DISL:CATA:1,2016-08-06T07:30:00Z,30.3085,-88.1395,2.278,18.92,1111122 
DISL,ioos:station:DISL:CATA:1,2016-08-06T08:00:00Z,30.3085,-88.1395,2.294,19.35,1111122 
DISL,ioos:station:DISL:CATA:1,2016-08-06T08:30:00Z,30.3085,-88.1395,2.333,19.6,1111122 
DISL,ioos:station:DISL:CATA:1,2016-08-06T09:00:00Z,30.3085,-88.1395,2.348,19.41,1111122 
DISL,ioos:station:DISL:CATA:1,2016-08-06T09:30:00Z,30.3085,-88.1395,2.344,19.23,1111122 
DISL,ioos:station:DISL:CATA:1,2016-08-06T10:00:00Z,30.3085,-88.1395,2.35,18.98,1111122 
DISL,ioos:station:DISL:CATA:1,2016-08-06T10:30:00Z,30.3085,-88.1395,2.356,19.03,1111122 
DISL,ioos:station:DISL:CATA:1,2016-08-06T11:00:00Z,30.3085,-88.1395,2.345,19.8,1111122 
DISL,ioos:station:DISL:CATA:1,2016-08-06T11:30:00Z,30.3085,-88.1395,2.332,20.24,1111122 
DISL,ioos:station:DISL:CATA:1,2016-08-06T12:00:00Z,30.3085,-88.1395,2.344,20.08,1111122 
DISL,ioos:station:DISL:CATA:1,2016-08-06T12:30:00Z,30.3085,-88.1395,2.34,19.52,1111122 
DISL,ioos:station:DISL:CATA:1,2016-08-06T13:00:00Z,30.3085,-88.1395,2.343,19.76,1111122 
DISL,ioos:station:DISL:CATA:1,2016-08-06T13:30:00Z,30.3085,-88.1395,2.36,17.71,1111122 
DISL,ioos:station:DISL:CATA:1,2016-08-06T14:00:00Z,30.3085,-88.1395,2.361,18.76,1111122 